NOAA 16 DEB, 41707

Orbit data source: Space-Track

NOAA 16 DEB, 41707 is space debris in SSO originally from a launch on Thu, 21 Sep 2000 UTC launched from the Air Force Western Test Range (AFWTR). Debris objects in space refer to the collection of defunct objects orbiting the Earth. Examples of debris include non-operational satellites, rocket bodies, and fragments generated from explosions, collisions, or faulty payload assembly.

Loading next visibility...
Identifier
41707, 2000-055PM
Orbit
SSO
Country
Flag of USUS
Related business
Manufacturer
Unknown
Mission
Spacecraft
Bus & Motor
Unknown
Mass
Unknown
Launch date (UTC)
2000-09-21 (25 years ago)
Launch vehicle
Unknown
Launch site
Air Force Western Test Range (AFWTR)
Object type
Payload
Rocket body
Debris
Shape & HBR
Unknown shape, 0.1 m
Radar Cross Section
Small (<0.1 m²)

Expand to show TLE details & history
Last TLE update: 2 days ago

TLE from 2 days ago
0 NOAA 16 DEB
1 41707U 00055PM  25289.33875513  .00011528  00000-0  31555-2 0  9998
2 41707  98.8387  63.5709 0024364 145.5528 214.7248 14.47161330493603
Epoch: 2025-10-16T08:07Z
TLE epoch observation values (Epoch: 2025-10-16T08:07:48.443Z)
Latitude
-0.00001°
Longitude
-83.48085°
Altitude
752.143 km
Speed
7.471 km/s
True Right ascension
04h 14m 17s
True Declination
0° 00' 00"
Sunlit
Object was in full shadow at epoch
Visualization orbit readout
Latitude
Unknown
Longitude
Unknown
Altitude
Unknown
Speed
Unknown
Apparent Right ascension
Unknown
Apparent Declination
Unknown
Sunlit
N/A
Visualization observer readout
Local Sidereal Time
12:27:42
Azimuth
Unknown
Elevation
Unknown
Doppler factor
Unknown
Orbital elements
Apogee altitude
749.387 km
Perigee altitude
714.74 km
Semi-major axis
7,110.201 km
Eccentricity
0.00244
Inclination
98.8387°
RAAN
63.5709°
Arg. of periapsis
145.5528°
True anomaly
214.56616°
Mean anomaly
214.7248°
Eccentric anomaly
214.64544°
Mean motion
3.6201 °/min
Orbital period
99.44 mins
BSTAR
0.0031555
Loading maneuver chart data...
Computing Atmospheric mass density...

Documentation

Showing up to 5 results
|